Weather in Kryzhanivka

Ukraine / Odesa District     46°33′37″N   30°47′21″E
temp.,
°C
wind,
m/s
gust,
m/s
humid.,
%
clouds,
%
prec.,
mm/h
press.,
hPa
HPBL,
m
15 may, sat
sat1500:00+15sw6127927 0.0 1010251
03:00+14sw59830 0.0 1010213
06:00+13wsw46770 0.0 1011149
09:00+17sw34621 0.0 1012309
12:00+19ssw45595 0.0 1012835
15:00+20s765849 0.0 10121120
18:00+18s696679 0.0 1012336
21:00+16s45722 0.0 1012120
16 may, sun
sun1600:00+15s237968 0.0 101254
03:00+15e3381100 0.0 101261
06:00+15ene3378100 0.0 101263
09:00+17ne456380 0.0 1012237
12:00+19ese3456100 0.0 1011493
15:00+20sse2352100 0.0 1010472
18:00+20w4554100 0.0 1008210
21:00+19nw5762100 0.0 1007126
17 may, mon
mon1700:00+18nnw5963100 0.0 1006158
03:00+18n5867100 0.0 1004224
06:00+16nnw51091100 0.8 1004345
09:00+16nnw4791100 4.4 1005356
12:00+18nnw357499 0.5 1006456
15:00+19ssw447052 1.9 1005705
18:00+18s677525 2.8 1005302
21:00+17s368520 2.9 1006141
18 may, tue
tue1800:00+16sw34795 0.0 100662
03:00+15ssw47855 0.0 1005121
06:00+15sw4885100 0.0 1005158
09:00+18w57686 0.0 1007340
12:00+21w355547 0.0 1007817
15:00+21w665786 0.5 1008903
18:00+20wnw45632 1.4 1009682
21:00+17w237511 2.7 101039
19 may, wed
wed1900:00+16nw227833 0.1 101136
03:00+15nne2276100 0.1 101123
06:00+15nne3478100 0.3 1010109
09:00+14n4684100 0.6 1011285
12:00+16ne4580100 0.3 1011374
15:00+16ne2281100 2.6 1010292
18:00+15ne2386100 4.4 1009177
21:00+14nne1291100 8.9 101098